Time,TemperatureF,DewpointF,PressureIn,WindDirection,WindDirectionDegrees,WindSpeedMPH,WindSpeedGustMPH,Humidity,HourlyPrecipIn,Conditions,Clouds,dailyrainin,SoftwareType,DateUTC
2013-01-29 00:01:00,23.7,4.5,30.02,SE,144,0.0,0.0,43,0.00,CLR,,0.00,WeatherDisplay:10.37,2013-01-29 05:01:00,
2013-01-29 00:02:00,23.7,4.5,30.02,SE,143,0.0,0.0,43,0.00,CLR,,0.00,WeatherDisplay:10.37,2013-01-29 05:02:00,
2013-01-29 00:03:00,23.7,4.5,30.02,SE,143,0.0,0.0,43,0.00,CLR,,0.00,WeatherDisplay:10.37,2013-01-29 05:03:00,
2013-01-29 00:04:00,23.7,4.5,30.02,SE,143,0.0,0.0,43,0.00,CLR,,0.00,WeatherDisplay:10.37,2013-01-29 05:04:00,
2013-01-29 00:09:00,23.7,4.5,30.02,SE,144,0.0,0.0,43,0.00,CLR,,0.00,WeatherDisplay:10.37,2013-01-29 05:09:00,
2013-01-29 00:14:00,23.7,4.5,30.05,SE,143,0.0,0.0,43,0.00,CLR,,0.00,WeatherDisplay:10.37,2013-01-29 05:14:00,
2013-01-29 00:19:00,23.7,4.5,30.05,SE,143,0.0,0.0,43,0.00,CLR,,0.00,WeatherDisplay:10.37,2013-01-29 05:19:00,
2013-01-29 00:24:00,23.7,4.5,30.05,SE,143,0.0,0.0,43,0.00,CLR,,0.00,WeatherDisplay:10.37,2013-01-29 05:24:00,
2013-01-29 00:29:00,23.7,4.5,30.05,SE,143,0.0,0.0,43,0.00,CLR,,0.00,WeatherDisplay:10.37,2013-01-29 05:29:00,
2013-01-29 00:34:00,23.7,4.5,30.05,SE,144,0.0,0.0,43,0.00,CLR,,0.00,WeatherDisplay:10.37,2013-01-29 05:34:00,
2013-01-29 00:39:00,23.9,5.1,30.02,SE,143,0.0,0.0,44,0.00,CLR,,0.00,WeatherDisplay:10.37,2013-01-29 05:39:00,
2013-01-29 00:44:00,23.9,5.1,30.02,SE,144,0.0,0.0,44,0.00,CLR,,0.00,WeatherDisplay:10.37,2013-01-29 05:44:00,
2013-01-29 00:49:00,23.9,4.6,30.02,SE,143,0.0,0.0,43,0.00,CLR,,0.00,WeatherDisplay:10.37,2013-01-29 05:49:00,
2013-01-29 00:54:00,23.9,5.1,30.05,SE,144,0.0,0.0,44,0.00,CLR,,0.00,WeatherDisplay:10.37,2013-01-29 05:54:00,
2013-01-29 00:59:00,23.9,5.1,30.05,SE,143,0.0,0.0,44,0.00,CLR,,0.00,WeatherDisplay:10.37,2013-01-29 05:59:00,
2013-01-29 01:04:00,23.9,5.1,30.05,SE,143,0.0,0.0,44,0.00,CLR,,0.00,WeatherDisplay:10.37,2013-01-29 06:04:00,
2013-01-29 01:09:00,23.9,5.1,30.05,NE,40,0.0,0.0,44,0.00,CLR,,0.00,WeatherDisplay:10.37,2013-01-29 06:09:00,
2013-01-29 01:14:00,23.7,5.0,30.05,NE,40,0.0,0.0,44,0.00,CLR,,0.00,WeatherDisplay:10.37,2013-01-29 06:14:00,
2013-01-29 01:19:00,23.7,5.0,30.05,NE,40,0.0,0.0,44,0.00,CLR,,0.00,WeatherDisplay:10.37,2013-01-29 06:19:00,
2013-01-29 01:24:00,23.7,5.0,30.05,ESE,109,0.0,0.0,44,0.00,CLR,,0.00,WeatherDisplay:10.37,2013-01-29 06:24:00,
2013-01-29 01:29:00,23.9,5.1,30.05,ESE,109,0.0,0.0,44,0.00,CLR,,0.00,WeatherDisplay:10.37,2013-01-29 06:29:00,
2013-01-29 01:34:00,23.9,5.1,30.05,ESE,109,0.0,0.0,44,0.00,CLR,,0.00,WeatherDisplay:10.37,2013-01-29 06:34:00,
2013-01-29 01:39:00,23.9,5.1,30.05,ESE,109,0.0,0.0,44,0.00,CLR,,0.00,WeatherDisplay:10.37,2013-01-29 06:39:00,
2013-01-29 01:44:00,23.9,5.1,30.05,ESE,109,0.0,0.0,44,0.00,CLR,,0.00,WeatherDisplay:10.37,2013-01-29 06:44:00,
2013-01-29 01:49:00,23.9,5.1,30.05,WSW,244,0.0,0.0,44,0.00,CLR,,0.00,WeatherDisplay:10.37,2013-01-29 06:49:00,
2013-01-29 01:54:00,23.9,5.6,30.05,WSW,244,0.0,0.0,45,0.00,CLR,,0.00,WeatherDisplay:10.37,2013-01-29 06:54:00,
2013-01-29 01:59:00,23.9,5.1,30.05,WSW,244,0.0,0.0,44,0.00,CLR,,0.00,WeatherDisplay:10.37,2013-01-29 06:59:00,
2013-01-29 02:04:00,23.9,5.1,30.05,WSW,244,0.0,0.0,44,0.00,CLR,,0.00,WeatherDisplay:10.37,2013-01-29 07:04:00,
2013-01-29 02:09:00,24.1,5.3,30.05,WSW,244,0.0,0.0,44,0.00,CLR,,0.00,WeatherDisplay:10.37,2013-01-29 07:09:00,
2013-01-29 02:14:00,24.1,5.8,30.05,WSW,244,0.0,0.0,45,0.00,CLR,,0.00,WeatherDisplay:10.37,2013-01-29 07:14:00,
2013-01-29 02:19:00,24.1,5.8,30.05,WSW,244,0.0,0.0,45,0.00,CLR,,0.00,WeatherDisplay:10.37,2013-01-29 07:19:00,
2013-01-29 02:24:00,24.1,5.8,30.05,WSW,244,0.0,0.0,45,0.00,CLR,,0.00,WeatherDisplay:10.37,2013-01-29 07:24:00,
2013-01-29 02:29:00,24.1,5.8,30.05,WSW,244,0.0,0.0,45,0.00,CLR,,0.00,WeatherDisplay:10.37,2013-01-29 07:29:00,
2013-01-29 02:34:00,24.1,5.8,30.05,WSW,244,0.0,0.0,45,0.00,CLR,,0.00,WeatherDisplay:10.37,2013-01-29 07:34:00,
2013-01-29 02:39:00,24.1,5.8,30.05,WSW,244,0.0,0.0,45,0.00,CLR,,0.00,WeatherDisplay:10.37,2013-01-29 07:39:00,
2013-01-29 02:44:00,24.1,5.8,30.05,WSW,244,0.0,0.0,45,0.00,CLR,,0.00,WeatherDisplay:10.37,2013-01-29 07:44:00,
2013-01-29 02:49:00,24.1,5.8,30.05,WSW,245,0.0,0.0,45,0.00,CLR,,0.00,WeatherDisplay:10.37,2013-01-29 07:49:00,
2013-01-29 02:54:00,24.1,5.8,30.05,WSW,244,0.0,0.0,45,0.00,CLR,,0.00,WeatherDisplay:10.37,2013-01-29 07:54:00,
2013-01-29 02:59:00,24.1,5.8,30.08,NW,312,0.0,0.0,45,0.00,CLR,,0.00,WeatherDisplay:10.37,2013-01-29 07:59:00,
2013-01-29 03:04:00,24.1,5.8,30.08,NW,312,0.0,0.0,45,0.00,CLR,,0.00,WeatherDisplay:10.37,2013-01-29 08:04:00,
2013-01-29 03:09:00,23.9,5.6,30.05,NW,312,0.0,0.0,45,0.00,CLR,,0.00,WeatherDisplay:10.37,2013-01-29 08:09:00,
2013-01-29 03:14:00,24.1,5.8,30.05,NW,311,0.0,0.0,45,0.00,CLR,,0.00,WeatherDisplay:10.37,2013-01-29 08:14:00,
2013-01-29 03:19:00,24.1,5.8,30.05,NW,312,0.0,0.0,45,0.00,CLR,,0.00,WeatherDisplay:10.37,2013-01-29 08:19:00,
2013-01-29 03:24:00,24.1,5.8,30.05,NW,311,0.0,0.0,45,0.00,CLR,,0.00,WeatherDisplay:10.37,2013-01-29 08:24:00,
2013-01-29 03:29:00,24.1,5.3,30.05,NW,311,0.0,0.0,44,0.00,CLR,,0.00,WeatherDisplay:10.37,2013-01-29 08:29:00,
2013-01-29 03:34:00,24.1,5.3,30.08,NW,312,0.0,0.0,44,0.00,CLR,,0.00,WeatherDisplay:10.37,2013-01-29 08:34:00,
2013-01-29 03:39:00,24.1,5.3,30.08,NW,312,0.0,0.0,44,0.00,CLR,,0.00,WeatherDisplay:10.37,2013-01-29 08:39:00,
2013-01-29 03:44:00,24.1,5.3,30.05,NW,312,0.0,0.0,44,0.00,CLR,,0.00,WeatherDisplay:10.37,2013-01-29 08:44:00,
2013-01-29 03:49:00,24.1,5.3,30.05,NW,312,0.0,0.0,44,0.00,CLR,,0.00,WeatherDisplay:10.37,2013-01-29 08:49:00,
2013-01-29 03:54:00,24.1,5.3,30.05,NW,312,0.0,0.0,44,0.00,CLR,,0.00,WeatherDisplay:10.37,2013-01-29 08:54:00,
2013-01-29 03:59:00,24.1,5.3,30.05,NW,312,0.0,0.0,44,0.00,CLR,,0.00,WeatherDisplay:10.37,2013-01-29 08:59:00,
2013-01-29 04:04:00,24.3,5.4,30.05,NW,311,0.0,0.0,44,0.00,CLR,,0.00,WeatherDisplay:10.37,2013-01-29 09:04:00,
2013-01-29 04:09:00,24.3,5.4,30.08,NW,312,0.0,0.0,44,0.00,CLR,,0.00,WeatherDisplay:10.37,2013-01-29 09:09:00,
2013-01-29 04:14:00,24.3,5.4,30.08,NW,312,0.0,0.0,44,0.00,CLR,,0.00,WeatherDisplay:10.37,2013-01-29 09:14:00,
2013-01-29 04:19:00,24.3,5.4,30.08,NW,312,0.0,0.0,44,0.00,CLR,,0.00,WeatherDisplay:10.37,2013-01-29 09:19:00,
2013-01-29 04:24:00,24.4,5.6,30.08,NW,312,0.0,0.0,44,0.00,CLR,,0.00,WeatherDisplay:10.37,2013-01-29 09:24:00,
2013-01-29 04:29:00,24.4,5.6,30.08,NW,312,0.0,0.0,44,0.00,CLR,,0.00,WeatherDisplay:10.37,2013-01-29 09:29:00,
2013-01-29 04:34:00,24.4,5.6,30.08,NW,312,0.0,0.0,44,0.00,CLR,,0.00,WeatherDisplay:10.37,2013-01-29 09:34:00,
2013-01-29 04:39:00,24.4,5.6,30.08,NW,311,0.0,0.0,44,0.00,CLR,,0.00,WeatherDisplay:10.37,2013-01-29 09:39:00,
2013-01-29 04:44:00,24.4,5.6,30.08,NW,312,0.0,0.0,44,0.00,CLR,,0.00,WeatherDisplay:10.37,2013-01-29 09:44:00,
2013-01-29 04:49:00,24.4,5.6,30.08,NW,312,0.0,0.0,44,0.00,CLR,,0.00,WeatherDisplay:10.37,2013-01-29 09:49:00,
2013-01-29 04:54:00,24.4,5.6,30.08,NW,312,0.0,0.0,44,0.00,CLR,,0.00,WeatherDisplay:10.37,2013-01-29 09:54:00,
2013-01-29 04:59:00,24.4,5.6,30.08,NW,312,0.0,0.0,44,0.00,CLR,,0.00,WeatherDisplay:10.37,2013-01-29 09:59:00,
2013-01-29 05:04:00,24.4,5.6,30.08,NW,312,0.0,0.0,44,0.00,CLR,,0.00,WeatherDisplay:10.37,2013-01-29 10:04:00,
2013-01-29 05:09:00,24.4,5.6,30.08,NW,312,0.0,0.0,44,0.00,CLR,,0.00,WeatherDisplay:10.37,2013-01-29 10:09:00,
2013-01-29 05:14:00,24.6,5.8,30.08,NW,312,0.0,0.0,44,0.00,CLR,,0.00,WeatherDisplay:10.37,2013-01-29 10:14:00,
2013-01-29 05:19:00,24.6,5.8,30.08,NW,312,0.0,0.0,44,0.00,CLR,,0.00,WeatherDisplay:10.37,2013-01-29 10:19:00,
2013-01-29 05:24:00,24.6,5.8,30.08,NW,311,0.0,0.0,44,0.00,CLR,,0.00,WeatherDisplay:10.37,2013-01-29 10:24:00,
2013-01-29 05:29:00,24.6,5.8,30.08,NW,312,0.0,0.0,44,0.00,CLR,,0.00,WeatherDisplay:10.37,2013-01-29 10:29:00,
2013-01-29 05:34:00,24.6,5.8,30.08,NW,312,0.0,0.0,44,0.00,CLR,,0.00,WeatherDisplay:10.37,2013-01-29 10:34:00,
2013-01-29 05:39:00,24.6,5.8,30.08,NW,312,0.0,0.0,44,0.00,CLR,,0.00,WeatherDisplay:10.37,2013-01-29 10:39:00,
2013-01-29 05:44:00,24.6,5.8,30.08,NW,312,0.0,0.0,44,0.00,CLR,,0.00,WeatherDisplay:10.37,2013-01-29 10:44:00,
2013-01-29 05:49:00,24.6,5.8,30.08,NW,312,0.0,0.0,44,0.00,CLR,,0.00,WeatherDisplay:10.37,2013-01-29 10:49:00,
2013-01-29 05:54:00,24.6,5.8,30.08,NW,312,0.0,0.0,44,0.00,CLR,,0.00,WeatherDisplay:10.37,2013-01-29 10:54:00,
2013-01-29 05:59:00,24.6,5.8,30.08,NW,312,0.0,0.0,44,0.00,CLR,,0.00,WeatherDisplay:10.37,2013-01-29 10:59:00,
2013-01-29 06:04:00,24.6,5.8,30.08,NW,312,0.0,0.0,44,0.00,CLR,,0.00,WeatherDisplay:10.37,2013-01-29 11:04:00,
2013-01-29 06:09:00,24.8,5.9,30.11,NW,312,0.0,0.0,44,0.00,CLR,,0.00,WeatherDisplay:10.37,2013-01-29 11:09:00,
2013-01-29 06:14:00,24.8,5.9,30.11,NW,312,0.0,0.0,44,0.00,CLR,,0.00,WeatherDisplay:10.37,2013-01-29 11:14:00,
2013-01-29 06:19:00,24.8,5.9,30.11,NW,312,0.0,0.0,44,0.00,CLR,,0.00,WeatherDisplay:10.37,2013-01-29 11:19:00,
2013-01-29 06:24:00,24.8,5.9,30.11,NW,312,0.0,0.0,44,0.00,CLR,,0.00,WeatherDisplay:10.37,2013-01-29 11:24:00,
2013-01-29 06:29:00,24.8,5.9,30.11,NW,312,0.0,0.0,44,0.00,CLR,,0.00,WeatherDisplay:10.37,2013-01-29 11:29:00,
2013-01-29 06:34:00,24.6,5.8,30.11,NW,311,0.0,0.0,44,0.00,CLR,,0.00,WeatherDisplay:10.37,2013-01-29 11:34:00,
2013-01-29 06:39:00,24.8,5.9,30.11,NW,311,0.0,0.0,44,0.00,CLR,,0.00,WeatherDisplay:10.37,2013-01-29 11:39:00,
2013-01-29 06:44:00,24.8,5.9,30.11,NW,312,0.0,0.0,44,0.00,CLR,,0.00,WeatherDisplay:10.37,2013-01-29 11:44:00,
2013-01-29 06:49:00,24.8,5.9,30.11,NW,312,0.0,0.0,44,0.00,CLR,,0.00,WeatherDisplay:10.37,2013-01-29 11:49:00,
2013-01-29 06:54:00,24.8,5.9,30.11,NW,312,0.0,0.0,44,0.00,CLR,,0.00,WeatherDisplay:10.37,2013-01-29 11:54:00,
2013-01-29 06:59:00,24.8,5.9,30.11,NW,312,0.0,0.0,44,0.00,CLR,,0.00,WeatherDisplay:10.37,2013-01-29 11:59:00,
2013-01-29 07:04:00,24.8,5.9,30.11,NW,311,0.0,0.0,44,0.00,CLR,,0.00,WeatherDisplay:10.37,2013-01-29 12:04:00,
2013-01-29 07:09:00,24.8,5.9,30.11,NW,311,0.0,0.0,44,0.00,CLR,,0.00,WeatherDisplay:10.37,2013-01-29 12:09:00,
2013-01-29 07:14:00,24.8,5.4,30.14,NW,312,0.0,0.0,43,0.00,CLR,,0.00,WeatherDisplay:10.37,2013-01-29 12:14:00,
2013-01-29 07:19:00,24.8,5.4,30.14,NW,311,0.0,0.0,43,0.00,CLR,,0.00,WeatherDisplay:10.37,2013-01-29 12:19:00,
2013-01-29 07:24:00,24.8,5.4,30.14,NW,312,0.0,0.0,43,0.00,CLR,,0.00,WeatherDisplay:10.37,2013-01-29 12:24:00,
2013-01-29 07:29:00,24.8,5.4,30.14,NW,311,0.0,0.0,43,0.00,CLR,,0.00,WeatherDisplay:10.37,2013-01-29 12:29:00,
2013-01-29 07:34:00,25.0,5.1,30.14,NW,312,0.0,0.0,42,0.00,CLR,,0.00,WeatherDisplay:10.37,2013-01-29 12:34:00,
2013-01-29 07:39:00,25.0,5.1,30.14,NW,312,0.0,0.0,42,0.00,CLR,,0.00,WeatherDisplay:10.37,2013-01-29 12:39:00,
2013-01-29 07:44:00,25.0,5.1,30.14,NW,312,0.0,0.0,42,0.00,CLR,,0.00,WeatherDisplay:10.37,2013-01-29 12:44:00,
2013-01-29 07:49:00,25.0,5.1,30.14,NW,311,2.3,0.0,42,0.00,CLR,,0.00,WeatherDisplay:10.37,2013-01-29 12:49:00,
2013-01-29 07:54:00,25.0,5.1,30.14,NW,312,0.0,0.0,42,0.00,CLR,,0.00,WeatherDisplay:10.37,2013-01-29 12:54:00,
2013-01-29 07:59:00,25.0,5.1,30.14,NW,311,0.0,0.0,42,0.00,CLR,,0.00,WeatherDisplay:10.37,2013-01-29 12:59:00,
2013-01-29 08:04:00,25.0,4.6,30.14,NW,312,0.0,0.0,41,0.00,CLR,,0.00,WeatherDisplay:10.37,2013-01-29 13:04:00,
2013-01-29 08:09:00,25.3,4.9,30.14,NW,312,2.3,0.0,41,0.00,CLR,,0.00,WeatherDisplay:10.37,2013-01-29 13:09:00,
2013-01-29 08:14:00,25.2,3.6,30.14,NW,312,0.0,0.0,39,0.00,CLR,,0.00,WeatherDisplay:10.37,2013-01-29 13:14:00,
2013-01-29 08:19:00,25.2,1.9,30.14,NW,312,0.0,0.0,36,0.00,CLR,,0.00,WeatherDisplay:10.37,2013-01-29 13:19:00,
2013-01-29 08:24:00,25.3,2.1,30.14,NW,311,0.0,0.0,36,0.00,CLR,,0.00,WeatherDisplay:10.37,2013-01-29 13:24:00,
2013-01-29 08:29:00,25.3,2.1,30.14,NW,312,0.0,0.0,36,0.00,CLR,,0.00,WeatherDisplay:10.37,2013-01-29 13:29:00,
2013-01-29 08:34:00,25.3,2.1,30.14,NW,312,0.0,0.0,36,0.00,CLR,,0.00,WeatherDisplay:10.37,2013-01-29 13:34:00,
2013-01-29 08:39:00,25.3,2.1,30.17,NW,312,0.0,0.0,36,0.00,CLR,,0.00,WeatherDisplay:10.37,2013-01-29 13:39:00,
2013-01-29 08:44:00,25.9,2.5,30.17,NW,312,0.0,0.0,36,0.00,CLR,,0.00,WeatherDisplay:10.37,2013-01-29 13:44:00,
2013-01-29 08:49:00,25.9,2.5,30.17,NW,311,0.0,0.0,36,0.00,CLR,,0.00,WeatherDisplay:10.37,2013-01-29 13:49:00,
2013-01-29 08:54:00,26.4,1.8,30.17,NW,312,0.0,0.0,34,0.00,CLR,,0.00,WeatherDisplay:10.37,2013-01-29 13:54:00,
2013-01-29 08:59:00,26.4,1.8,30.17,NW,312,2.3,0.0,34,0.00,CLR,,0.00,WeatherDisplay:10.37,2013-01-29 13:59:00,
2013-01-29 09:04:00,26.2,1.6,30.17,NW,311,0.0,0.0,34,0.00,CLR,,0.00,WeatherDisplay:10.37,2013-01-29 14:04:00,
2013-01-29 09:09:00,26.8,1.5,30.17,NW,311,0.0,0.0,33,0.00,CLR,,0.00,WeatherDisplay:10.37,2013-01-29 14:09:00,
2013-01-29 09:14:00,27.0,1.6,30.17,NW,311,0.0,0.0,33,0.00,CLR,,0.00,WeatherDisplay:10.37,2013-01-29 14:14:00,
2013-01-29 09:19:00,27.3,0.6,30.17,NW,311,2.3,0.0,31,0.00,CLR,,0.00,WeatherDisplay:10.37,2013-01-29 14:19:00,
2013-01-29 09:24:00,27.7,0.9,30.17,NW,312,0.0,0.0,31,0.00,CLR,,0.00,WeatherDisplay:10.37,2013-01-29 14:24:00,
2013-01-29 09:29:00,28.2,1.4,30.17,NW,312,0.0,0.0,31,0.00,CLR,,0.00,WeatherDisplay:10.37,2013-01-29 14:29:00,
2013-01-29 09:34:00,28.4,1.6,30.17,NW,312,0.0,0.0,31,0.00,CLR,,0.00,WeatherDisplay:10.37,2013-01-29 14:34:00,
2013-01-29 09:39:00,28.9,1.3,30.17,NW,312,2.3,2.3,30,0.00,CLR,,0.00,WeatherDisplay:10.37,2013-01-29 14:39:00,
2013-01-29 09:44:00,28.8,1.2,30.17,NW,311,2.3,0.0,30,0.00,CLR,,0.00,WeatherDisplay:10.37,2013-01-29 14:44:00,
2013-01-29 09:49:00,29.7,2.0,30.17,NW,312,0.0,0.0,30,0.00,CLR,,0.00,WeatherDisplay:10.37,2013-01-29 14:49:00,
2013-01-29 09:54:00,30.6,2.7,30.17,ENE,69,0.0,0.0,30,0.00,CLR,,0.00,WeatherDisplay:10.37,2013-01-29 14:54:00,
2013-01-29 09:59:00,30.9,3.1,30.17,WNW,295,2.3,0.0,30,0.00,CLR,,0.00,WeatherDisplay:10.37,2013-01-29 14:59:00,
2013-01-29 10:04:00,30.9,3.1,30.17,WNW,295,0.0,0.0,30,0.00,CLR,,0.00,WeatherDisplay:10.37,2013-01-29 15:04:00,
2013-01-29 10:09:00,32.2,4.2,30.17,NNW,345,0.0,0.0,30,0.00,CLR,,0.00,WeatherDisplay:10.37,2013-01-29 15:09:00,
2013-01-29 10:14:00,32.2,4.2,30.17,ESE,104,0.0,0.0,30,0.00,CLR,,0.00,WeatherDisplay:10.37,2013-01-29 15:14:00,
2013-01-29 10:19:00,32.2,4.2,30.17,ESE,107,0.0,0.0,30,0.00,CLR,,0.00,WeatherDisplay:10.37,2013-01-29 15:19:00,
2013-01-29 10:24:00,32.7,4.6,30.17,ESE,107,0.0,0.0,30,0.00,CLR,,0.00,WeatherDisplay:10.37,2013-01-29 15:24:00,
2013-01-29 10:29:00,32.7,4.6,30.17,ESE,110,0.0,0.0,30,0.00,CLR,,0.00,WeatherDisplay:10.37,2013-01-29 15:29:00,
2013-01-29 10:34:00,33.1,5.0,30.17,ESE,109,0.0,0.0,30,0.00,CLR,,0.00,WeatherDisplay:10.37,2013-01-29 15:34:00,
2013-01-29 10:39:00,33.3,5.1,30.17,ESE,109,0.0,0.0,30,0.00,CLR,,0.00,WeatherDisplay:10.37,2013-01-29 15:39:00,
2013-01-29 10:44:00,32.9,4.8,30.17,ESE,109,0.0,0.0,30,0.00,CLR,,0.00,WeatherDisplay:10.37,2013-01-29 15:44:00,
2013-01-29 10:49:00,32.7,4.6,30.17,ESE,109,0.0,0.0,30,0.00,CLR,,0.00,WeatherDisplay:10.37,2013-01-29 15:49:00,
2013-01-29 10:54:00,32.7,4.6,30.19,ESE,110,2.3,0.0,30,0.00,CLR,,0.00,WeatherDisplay:10.37,2013-01-29 15:54:00,
2013-01-29 10:59:00,33.3,5.1,30.19,ESE,109,0.0,0.0,30,0.00,CLR,,0.00,WeatherDisplay:10.37,2013-01-29 15:59:00,
2013-01-29 11:04:00,33.4,5.3,30.19,ESE,110,0.0,0.0,30,0.00,CLR,,0.00,WeatherDisplay:10.37,2013-01-29 16:04:00,
2013-01-29 11:09:00,33.4,5.3,30.19,ESE,109,0.0,0.0,30,0.00,CLR,,0.00,WeatherDisplay:10.37,2013-01-29 16:09:00,
2013-01-29 11:14:00,33.4,5.3,30.19,ESE,110,2.3,0.0,30,0.00,CLR,,0.00,WeatherDisplay:10.37,2013-01-29 16:14:00,
2013-01-29 11:19:00,33.4,5.3,30.19,WNW,287,0.0,0.0,30,0.00,CLR,,0.00,WeatherDisplay:10.37,2013-01-29 16:19:00,
2013-01-29 11:24:00,33.1,5.0,30.19,WNW,287,3.5,0.0,30,0.00,CLR,,0.00,WeatherDisplay:10.37,2013-01-29 16:24:00,
2013-01-29 11:29:00,33.6,5.4,30.19,NW,304,2.3,0.0,30,0.00,CLR,,0.00,WeatherDisplay:10.37,2013-01-29 16:29:00,
2013-01-29 11:34:00,34.0,5.7,30.19,NW,304,2.3,0.0,30,0.00,CLR,,0.00,WeatherDisplay:10.37,2013-01-29 16:34:00,
2013-01-29 11:39:00,34.3,6.1,30.17,NW,304,2.3,0.0,30,0.00,CLR,,0.00,WeatherDisplay:10.37,2013-01-29 16:39:00,
2013-01-29 11:44:00,34.5,6.2,30.17,NW,304,0.0,0.0,30,0.00,CLR,,0.00,WeatherDisplay:10.37,2013-01-29 16:44:00,
2013-01-29 11:49:00,34.9,6.5,30.17,East,92,2.3,0.0,30,0.00,CLR,,0.00,WeatherDisplay:10.37,2013-01-29 16:49:00,
2013-01-29 11:54:00,35.1,6.7,30.17,East,95,2.3,0.0,30,0.00,CLR,,0.00,WeatherDisplay:10.37,2013-01-29 16:54:00,
2013-01-29 11:59:00,35.4,7.0,30.17,ESE,104,0.0,0.0,30,0.00,CLR,,0.00,WeatherDisplay:10.37,2013-01-29 16:59:00,
2013-01-29 12:04:00,35.4,7.0,30.17,ESE,104,0.0,0.0,30,0.00,CLR,,0.00,WeatherDisplay:10.37,2013-01-29 17:04:00,
2013-01-29 12:09:00,35.4,7.0,30.17,ESE,114,0.0,0.0,30,0.00,CLR,,0.00,WeatherDisplay:10.37,2013-01-29 17:09:00,
2013-01-29 12:14:00,35.4,7.0,30.17,ESE,114,0.0,0.0,30,0.00,CLR,,0.00,WeatherDisplay:10.37,2013-01-29 17:14:00,
2013-01-29 12:19:00,35.4,7.0,30.17,ESE,114,0.0,0.0,30,0.00,CLR,,0.00,WeatherDisplay:10.37,2013-01-29 17:19:00,
2013-01-29 12:24:00,35.4,7.0,30.17,ESE,114,0.0,0.0,30,0.00,CLR,,0.00,WeatherDisplay:10.37,2013-01-29 17:24:00,
2013-01-29 12:29:00,35.4,7.0,30.17,East,98,3.5,0.0,30,0.00,CLR,,0.00,WeatherDisplay:10.37,2013-01-29 17:29:00,
2013-01-29 12:34:00,35.2,6.8,30.17,East,97,0.0,0.0,30,0.00,CLR,,0.00,WeatherDisplay:10.37,2013-01-29 17:34:00,
2013-01-29 12:39:00,35.4,7.0,30.17,East,97,0.0,0.0,30,0.00,CLR,,0.00,WeatherDisplay:10.37,2013-01-29 17:39:00,
2013-01-29 12:44:00,35.2,6.8,30.17,East,97,0.0,0.0,30,0.00,CLR,,0.00,WeatherDisplay:10.37,2013-01-29 17:44:00,
2013-01-29 12:49:00,35.1,6.7,30.17,East,97,0.0,0.0,30,0.00,CLR,,0.00,WeatherDisplay:10.37,2013-01-29 17:49:00,
2013-01-29 12:54:00,34.5,6.2,30.17,East,97,0.0,0.0,30,0.00,CLR,,0.00,WeatherDisplay:10.37,2013-01-29 17:54:00,
2013-01-29 12:59:00,34.9,6.5,30.17,East,97,0.0,0.0,30,0.00,CLR,,0.00,WeatherDisplay:10.37,2013-01-29 17:59:00,
2013-01-29 13:04:00,35.2,6.8,30.17,East,97,0.0,0.0,30,0.00,CLR,,0.00,WeatherDisplay:10.37,2013-01-29 18:04:00,
2013-01-29 13:09:00,35.2,6.8,30.17,East,97,0.0,0.0,30,0.00,CLR,,0.00,WeatherDisplay:10.37,2013-01-29 18:09:00,
2013-01-29 13:14:00,35.4,7.0,30.17,East,97,2.3,0.0,30,0.00,CLR,,0.00,WeatherDisplay:10.37,2013-01-29 18:14:00,
2013-01-29 13:19:00,35.6,6.4,30.17,SSE,149,3.1,0.0,29,0.00,CLR,,0.00,WeatherDisplay:10.37,2013-01-29 18:19:00,
2013-01-29 13:24:00,35.6,6.4,30.17,ESE,105,0.0,0.0,29,0.00,CLR,,0.00,WeatherDisplay:10.37,2013-01-29 18:24:00,
2013-01-29 13:29:00,35.6,6.4,30.17,ESE,105,0.0,0.0,29,0.00,CLR,,0.00,WeatherDisplay:10.37,2013-01-29 18:29:00,
2013-01-29 13:34:00,36.1,6.9,30.17,ESE,105,0.0,0.0,29,0.00,CLR,,0.00,WeatherDisplay:10.37,2013-01-29 18:34:00,
2013-01-29 13:39:00,36.3,7.0,30.14,ESE,105,0.0,0.0,29,0.00,CLR,,0.00,WeatherDisplay:10.37,2013-01-29 18:39:00,
2013-01-29 13:44:00,36.3,7.0,30.14,ESE,105,0.0,0.0,29,0.00,CLR,,0.00,WeatherDisplay:10.37,2013-01-29 18:44:00,
2013-01-29 13:49:00,35.8,6.6,30.14,ESE,105,0.0,0.0,29,0.00,CLR,,0.00,WeatherDisplay:10.37,2013-01-29 18:49:00,
2013-01-29 13:54:00,35.4,7.0,30.17,ESE,105,0.0,0.0,30,0.00,CLR,,0.00,WeatherDisplay:10.37,2013-01-29 18:54:00,
2013-01-29 13:59:00,35.1,8.1,30.17,ESE,105,0.0,0.0,32,0.00,CLR,,0.00,WeatherDisplay:10.37,2013-01-29 18:59:00,
2013-01-29 14:04:00,34.9,6.5,30.17,ESE,105,3.5,0.0,30,0.00,CLR,,0.00,WeatherDisplay:10.37,2013-01-29 19:04:00,
2013-01-29 14:09:00,35.1,6.7,30.17,ESE,105,0.0,0.0,30,0.00,CLR,,0.00,WeatherDisplay:10.37,2013-01-29 19:09:00,
2013-01-29 14:14:00,35.1,6.7,30.17,ESE,105,0.0,0.0,30,0.00,CLR,,0.00,WeatherDisplay:10.37,2013-01-29 19:14:00,
2013-01-29 14:19:00,35.1,6.7,30.17,ESE,105,0.0,0.0,30,0.00,CLR,,0.00,WeatherDisplay:10.37,2013-01-29 19:19:00,
2013-01-29 14:24:00,34.9,6.5,30.17,ESE,105,0.0,0.0,30,0.00,CLR,,0.00,WeatherDisplay:10.37,2013-01-29 19:24:00,
2013-01-29 14:29:00,34.7,6.4,30.17,ESE,105,0.0,0.0,30,0.00,CLR,,0.00,WeatherDisplay:10.37,2013-01-29 19:29:00,
2013-01-29 14:34:00,34.7,6.4,30.17,ESE,105,0.0,0.0,30,0.00,CLR,,0.00,WeatherDisplay:10.37,2013-01-29 19:34:00,
2013-01-29 14:39:00,34.7,6.4,30.17,ESE,105,0.0,0.0,30,0.00,CLR,,0.00,WeatherDisplay:10.37,2013-01-29 19:39:00,
2013-01-29 14:44:00,34.5,6.2,30.17,ESE,105,0.0,0.0,30,0.00,CLR,,0.00,WeatherDisplay:10.37,2013-01-29 19:44:00,
2013-01-29 14:49:00,34.9,6.5,30.17,ESE,105,3.5,3.5,30,0.00,CLR,,0.00,WeatherDisplay:10.37,2013-01-29 19:49:00,
2013-01-29 14:54:00,34.9,6.5,30.17,ESE,105,0.0,0.0,30,0.00,CLR,,0.00,WeatherDisplay:10.37,2013-01-29 19:54:00,
2013-01-29 14:58:00,34.7,6.4,30.17,ESE,105,0.0,0.0,30,0.00,CLR,,0.00,WeatherDisplay:10.37,2013-01-29 19:58:00,
2013-01-29 15:03:00,34.7,6.4,30.17,ESE,105,0.0,0.0,30,0.00,CLR,,0.00,WeatherDisplay:10.37,2013-01-29 20:03:00,
2013-01-29 15:08:00,34.7,6.4,30.17,SW,219,3.5,3.5,30,0.00,CLR,,0.00,WeatherDisplay:10.37,2013-01-29 20:08:00,
2013-01-29 15:13:00,34.3,6.1,30.17,SW,219,0.0,0.0,30,0.00,CLR,,0.00,WeatherDisplay:10.37,2013-01-29 20:13:00,
2013-01-29 15:18:00,34.3,6.1,30.17,SE,127,3.5,0.0,30,0.00,CLR,,0.00,WeatherDisplay:10.37,2013-01-29 20:18:00,
2013-01-29 15:23:00,34.3,6.1,30.17,SE,129,0.0,0.0,30,0.00,CLR,,0.00,WeatherDisplay:10.37,2013-01-29 20:23:00,
2013-01-29 15:28:00,34.3,6.1,30.17,SE,129,0.0,0.0,30,0.00,CLR,,0.00,WeatherDisplay:10.37,2013-01-29 20:28:00,
2013-01-29 15:33:00,34.3,6.1,30.17,SE,130,2.3,0.0,30,0.00,CLR,,0.00,WeatherDisplay:10.37,2013-01-29 20:33:00,
2013-01-29 15:38:00,34.2,5.9,30.17,SE,131,0.0,0.0,30,0.00,CLR,,0.00,WeatherDisplay:10.37,2013-01-29 20:38:00,
2013-01-29 15:43:00,34.2,5.9,30.17,SE,130,0.0,0.0,30,0.00,CLR,,0.00,WeatherDisplay:10.37,2013-01-29 20:43:00,
2013-01-29 15:48:00,34.0,5.7,30.17,SE,130,0.0,0.0,30,0.00,CLR,,0.00,WeatherDisplay:10.37,2013-01-29 20:48:00,
2013-01-29 15:53:00,33.8,5.6,30.17,SE,130,0.0,0.0,30,0.00,CLR,,0.00,WeatherDisplay:10.37,2013-01-29 20:53:00,
2013-01-29 15:58:00,33.8,5.6,30.17,SE,130,2.3,0.0,30,0.00,CLR,,0.00,WeatherDisplay:10.37,2013-01-29 20:58:00,
2013-01-29 16:03:00,33.6,5.4,30.17,SE,130,0.0,0.0,30,0.00,CLR,,0.00,WeatherDisplay:10.37,2013-01-29 21:03:00,
2013-01-29 16:08:00,33.4,5.3,30.17,SE,130,0.0,0.0,30,0.00,CLR,,0.00,WeatherDisplay:10.37,2013-01-29 21:08:00,
2013-01-29 16:13:00,33.3,5.1,30.17,SE,130,0.0,0.0,30,0.00,CLR,,0.00,WeatherDisplay:10.37,2013-01-29 21:13:00,
2013-01-29 16:18:00,33.3,5.1,30.17,SE,130,0.0,0.0,30,0.00,CLR,,0.00,WeatherDisplay:10.37,2013-01-29 21:18:00,
2013-01-29 16:23:00,33.3,5.1,30.17,SE,130,0.0,0.0,30,0.00,CLR,,0.00,WeatherDisplay:10.37,2013-01-29 21:23:00,
2013-01-29 16:28:00,33.1,5.0,30.17,SE,130,0.0,0.0,30,0.00,CLR,,0.00,WeatherDisplay:10.37,2013-01-29 21:28:00,
2013-01-29 16:33:00,33.1,5.0,30.17,SE,130,0.0,0.0,30,0.00,CLR,,0.00,WeatherDisplay:10.37,2013-01-29 21:33:00,
2013-01-29 16:38:00,32.9,4.8,30.17,SE,130,0.0,0.0,30,0.00,CLR,,0.00,WeatherDisplay:10.37,2013-01-29 21:38:00,
2013-01-29 16:43:00,32.9,4.8,30.17,SE,130,0.0,0.0,30,0.00,CLR,,0.00,WeatherDisplay:10.37,2013-01-29 21:43:00,
2013-01-29 16:48:00,32.7,4.6,30.17,SE,130,0.0,0.0,30,0.00,CLR,,0.00,WeatherDisplay:10.37,2013-01-29 21:48:00,
2013-01-29 16:53:00,32.7,6.7,30.17,SE,130,0.0,0.0,33,0.00,CLR,,0.00,WeatherDisplay:10.37,2013-01-29 21:53:00,
2013-01-29 16:58:00,32.7,6.7,30.17,SE,130,0.0,0.0,33,0.00,CLR,,0.00,WeatherDisplay:10.37,2013-01-29 21:58:00,
2013-01-29 17:03:00,32.7,6.7,30.17,SE,130,0.0,0.0,33,0.00,CLR,,0.00,WeatherDisplay:10.37,2013-01-29 22:03:00,
2013-01-29 17:08:00,32.5,6.6,30.17,SE,130,0.0,0.0,33,0.00,CLR,,0.00,WeatherDisplay:10.37,2013-01-29 22:08:00,
2013-01-29 17:13:00,32.5,6.6,30.17,SE,130,0.0,0.0,33,0.00,CLR,,0.00,WeatherDisplay:10.37,2013-01-29 22:13:00,
2013-01-29 17:18:00,32.5,6.6,30.17,SE,130,0.0,0.0,33,0.00,CLR,,0.00,WeatherDisplay:10.37,2013-01-29 22:18:00,
2013-01-29 17:23:00,32.4,6.4,30.17,SE,130,0.0,0.0,33,0.00,CLR,,0.00,WeatherDisplay:10.37,2013-01-29 22:23:00,
2013-01-29 17:28:00,32.4,6.4,30.17,SE,130,0.0,0.0,33,0.00,CLR,,0.00,WeatherDisplay:10.37,2013-01-29 22:28:00,
2013-01-29 17:33:00,32.4,6.4,30.17,SE,130,0.0,0.0,33,0.00,CLR,,0.00,WeatherDisplay:10.37,2013-01-29 22:33:00,
2013-01-29 17:38:00,32.5,6.6,30.17,SE,130,0.0,0.0,33,0.00,CLR,,0.00,WeatherDisplay:10.37,2013-01-29 22:38:00,
2013-01-29 17:43:00,32.5,7.9,30.17,SE,130,0.0,0.0,35,0.00,CLR,,0.00,WeatherDisplay:10.37,2013-01-29 22:43:00,
2013-01-29 17:48:00,32.4,7.7,30.17,SE,130,0.0,0.0,35,0.00,CLR,,0.00,WeatherDisplay:10.37,2013-01-29 22:48:00,
2013-01-29 17:53:00,32.4,7.7,30.17,SE,130,0.0,0.0,35,0.00,CLR,,0.00,WeatherDisplay:10.37,2013-01-29 22:53:00,
2013-01-29 17:58:00,32.5,7.9,30.17,SE,130,0.0,0.0,35,0.00,CLR,,0.00,WeatherDisplay:10.37,2013-01-29 22:58:00,
2013-01-29 18:03:00,32.4,7.7,30.17,SE,130,0.0,0.0,35,0.00,CLR,,0.00,WeatherDisplay:10.37,2013-01-29 23:03:00,
2013-01-29 18:08:00,32.4,7.7,30.17,SE,130,0.0,0.0,35,0.00,CLR,,0.00,WeatherDisplay:10.37,2013-01-29 23:08:00,
2013-01-29 18:13:00,32.4,7.7,30.17,SE,130,0.0,0.0,35,0.00,CLR,,0.00,WeatherDisplay:10.37,2013-01-29 23:13:00,
2013-01-29 18:18:00,32.4,7.7,30.17,SE,130,0.0,0.0,35,0.00,CLR,,0.00,WeatherDisplay:10.37,2013-01-29 23:18:00,
2013-01-29 18:23:00,32.4,7.7,30.19,SE,130,0.0,0.0,35,0.00,CLR,,0.00,WeatherDisplay:10.37,2013-01-29 23:23:00,
2013-01-29 18:28:00,32.4,7.7,30.19,SE,130,0.0,0.0,35,0.00,CLR,,0.00,WeatherDisplay:10.37,2013-01-29 23:28:00,
2013-01-29 18:33:00,32.4,7.7,30.19,SE,130,0.0,0.0,35,0.00,CLR,,0.00,WeatherDisplay:10.37,2013-01-29 23:33:00,
2013-01-29 18:38:00,32.4,7.7,30.17,SE,130,0.0,0.0,35,0.00,CLR,,0.00,WeatherDisplay:10.37,2013-01-29 23:38:00,
2013-01-29 18:43:00,32.4,9.5,30.17,SE,130,0.0,0.0,38,0.00,CLR,,0.00,WeatherDisplay:10.37,2013-01-29 23:43:00,
2013-01-29 18:48:00,32.2,9.4,30.17,SE,130,0.0,0.0,38,0.00,CLR,,0.00,WeatherDisplay:10.37,2013-01-29 23:48:00,
2013-01-29 18:53:00,32.4,10.7,30.17,SE,130,0.0,0.0,40,0.00,CLR,,0.00,WeatherDisplay:10.37,2013-01-29 23:53:00,
2013-01-29 18:58:00,32.4,10.7,30.19,SE,130,0.0,0.0,40,0.00,CLR,,0.00,WeatherDisplay:10.37,2013-01-29 23:58:00,
2013-01-29 19:03:00,32.4,10.7,30.19,SE,130,0.0,0.0,40,0.00,CLR,,0.00,WeatherDisplay:10.37,2013-01-30 00:03:00,
2013-01-29 19:08:00,32.2,10.5,30.19,SE,130,0.0,0.0,40,0.00,CLR,,0.00,WeatherDisplay:10.37,2013-01-30 00:08:00,
2013-01-29 19:13:00,32.2,10.5,30.17,SE,130,0.0,0.0,40,0.00,CLR,,0.00,WeatherDisplay:10.37,2013-01-30 00:13:00,
2013-01-29 19:18:00,32.2,10.5,30.17,SE,130,0.0,0.0,40,0.00,CLR,,0.00,WeatherDisplay:10.37,2013-01-30 00:18:00,
2013-01-29 19:23:00,32.2,10.5,30.17,SE,130,0.0,0.0,40,0.00,CLR,,0.00,WeatherDisplay:10.37,2013-01-30 00:23:00,
2013-01-29 19:28:00,32.2,11.1,30.17,SE,130,0.0,0.0,41,0.00,CLR,,0.00,WeatherDisplay:10.37,2013-01-30 00:28:00,
2013-01-29 19:33:00,32.2,11.1,30.17,SE,130,0.0,0.0,41,0.00,CLR,,0.00,WeatherDisplay:10.37,2013-01-30 00:33:00,
2013-01-29 19:38:00,32.2,10.5,30.17,SE,130,0.0,0.0,40,0.00,CLR,,0.00,WeatherDisplay:10.37,2013-01-30 00:38:00,
2013-01-29 19:43:00,32.4,11.2,30.17,SE,130,0.0,0.0,41,0.00,CLR,,0.00,WeatherDisplay:10.37,2013-01-30 00:43:00,
2013-01-29 19:48:00,32.4,11.2,30.17,SE,130,0.0,0.0,41,0.00,CLR,,0.00,WeatherDisplay:10.37,2013-01-30 00:48:00,
2013-01-29 19:53:00,32.2,11.1,30.17,SE,130,0.0,0.0,41,0.00,CLR,,0.00,WeatherDisplay:10.37,2013-01-30 00:53:00,
2013-01-29 19:58:00,32.2,11.1,30.17,SE,130,0.0,0.0,41,0.00,CLR,,0.00,WeatherDisplay:10.37,2013-01-30 00:58:00,
2013-01-29 20:03:00,32.2,11.1,30.17,SE,130,0.0,0.0,41,0.00,CLR,,0.00,WeatherDisplay:10.37,2013-01-30 01:03:00,
2013-01-29 20:08:00,32.2,11.1,30.17,SE,130,0.0,0.0,41,0.00,CLR,,0.00,WeatherDisplay:10.37,2013-01-30 01:08:00,
2013-01-29 20:13:00,32.4,11.2,30.17,SE,130,0.0,0.0,41,0.00,CLR,,0.00,WeatherDisplay:10.37,2013-01-30 01:13:00,
2013-01-29 20:18:00,32.4,11.2,30.17,SE,130,0.0,0.0,41,0.00,CLR,,0.00,WeatherDisplay:10.37,2013-01-30 01:18:00,
2013-01-29 20:23:00,32.4,11.2,30.17,SE,130,0.0,0.0,41,0.00,CLR,,0.00,WeatherDisplay:10.37,2013-01-30 01:23:00,
2013-01-29 20:28:00,32.4,11.2,30.19,SE,130,0.0,0.0,41,0.00,CLR,,0.00,WeatherDisplay:10.37,2013-01-30 01:28:00,
2013-01-29 20:33:00,32.4,11.2,30.19,SE,130,0.0,0.0,41,0.00,CLR,,0.00,WeatherDisplay:10.37,2013-01-30 01:33:00,
2013-01-29 20:38:00,32.2,11.1,30.19,SE,130,0.0,0.0,41,0.00,CLR,,0.00,WeatherDisplay:10.37,2013-01-30 01:38:00,
2013-01-29 20:43:00,32.2,11.1,30.17,SE,130,0.0,0.0,41,0.00,CLR,,0.00,WeatherDisplay:10.37,2013-01-30 01:43:00,
2013-01-29 20:48:00,32.2,11.1,30.17,SE,130,0.0,0.0,41,0.00,CLR,,0.00,WeatherDisplay:10.37,2013-01-30 01:48:00,
2013-01-29 20:53:00,32.4,11.2,30.17,SE,130,0.0,0.0,41,0.00,CLR,,0.00,WeatherDisplay:10.37,2013-01-30 01:53:00,
2013-01-29 20:58:00,32.4,11.2,30.17,SE,130,0.0,0.0,41,0.00,CLR,,0.00,WeatherDisplay:10.37,2013-01-30 01:58:00,
2013-01-29 21:03:00,32.4,11.2,30.17,SE,130,0.0,0.0,41,0.00,CLR,,0.00,WeatherDisplay:10.37,2013-01-30 02:03:00,
2013-01-29 21:08:00,32.2,11.1,30.19,SE,130,0.0,0.0,41,0.00,CLR,,0.00,WeatherDisplay:10.37,2013-01-30 02:08:00,
2013-01-29 21:13:00,32.2,11.1,30.19,SE,130,0.0,0.0,41,0.00,CLR,,0.00,WeatherDisplay:10.37,2013-01-30 02:13:00,
2013-01-29 21:18:00,32.2,11.1,30.19,SE,130,0.0,0.0,41,0.00,CLR,,0.00,WeatherDisplay:10.37,2013-01-30 02:18:00,
2013-01-29 21:23:00,32.2,11.1,30.19,SE,130,0.0,0.0,41,0.00,CLR,,0.00,WeatherDisplay:10.37,2013-01-30 02:23:00,
2013-01-29 21:28:00,32.2,11.1,30.17,SE,130,0.0,0.0,41,0.00,CLR,,0.00,WeatherDisplay:10.37,2013-01-30 02:28:00,
2013-01-29 21:34:00,32.0,10.9,30.17,SE,130,0.0,0.0,41,0.00,CLR,,0.00,WeatherDisplay:10.37,2013-01-30 02:34:00,
2013-01-29 21:39:00,32.0,10.9,30.17,SE,130,0.0,0.0,41,0.00,CLR,,0.00,WeatherDisplay:10.37,2013-01-30 02:39:00,
2013-01-29 21:44:00,31.8,10.8,30.17,SE,130,0.0,0.0,41,0.00,CLR,,0.00,WeatherDisplay:10.37,2013-01-30 02:44:00,
2013-01-29 21:49:00,32.2,11.6,30.17,SE,130,0.0,0.0,42,0.00,CLR,,0.00,WeatherDisplay:10.37,2013-01-30 02:49:00,
2013-01-29 21:54:00,32.0,12.5,30.17,SE,130,0.0,0.0,44,0.00,CLR,,0.00,WeatherDisplay:10.37,2013-01-30 02:54:00,
2013-01-29 21:59:00,32.0,12.5,30.17,SE,130,0.0,0.0,44,0.00,CLR,,0.00,WeatherDisplay:10.37,2013-01-30 02:59:00,
2013-01-29 22:04:00,32.2,12.7,30.17,SE,130,0.0,0.0,44,0.00,CLR,,0.00,WeatherDisplay:10.37,2013-01-30 03:04:00,
2013-01-29 22:09:00,32.2,13.2,30.17,SE,130,0.0,0.0,45,0.00,CLR,,0.00,WeatherDisplay:10.37,2013-01-30 03:09:00,
2013-01-29 22:14:00,32.2,13.7,30.17,SE,130,0.0,0.0,46,0.00,CLR,,0.00,WeatherDisplay:10.37,2013-01-30 03:14:00,
2013-01-29 22:19:00,32.2,13.2,30.17,SE,130,0.0,0.0,45,0.00,CLR,,0.00,WeatherDisplay:10.37,2013-01-30 03:19:00,
2013-01-29 22:24:00,32.2,13.2,30.14,SE,130,0.0,0.0,45,0.00,CLR,,0.00,WeatherDisplay:10.37,2013-01-30 03:24:00,
2013-01-29 22:29:00,32.2,13.2,30.14,SE,130,0.0,0.0,45,0.00,CLR,,0.00,WeatherDisplay:10.37,2013-01-30 03:29:00,
2013-01-29 22:34:00,32.2,13.2,30.14,SE,130,0.0,0.0,45,0.00,CLR,,0.00,WeatherDisplay:10.37,2013-01-30 03:34:00,
2013-01-29 22:39:00,32.2,13.2,30.14,SE,130,0.0,0.0,45,0.00,CLR,,0.00,WeatherDisplay:10.37,2013-01-30 03:39:00,
2013-01-29 22:44:00,32.2,13.2,30.14,SE,130,0.0,0.0,45,0.00,CLR,,0.00,WeatherDisplay:10.37,2013-01-30 03:44:00,
2013-01-29 22:49:00,32.2,14.7,30.14,SE,130,0.0,0.0,48,0.00,CLR,,0.00,WeatherDisplay:10.37,2013-01-30 03:49:00,
2013-01-29 22:54:00,32.2,14.7,30.17,SE,130,0.0,0.0,48,0.00,CLR,,0.00,WeatherDisplay:10.37,2013-01-30 03:54:00,
2013-01-29 22:59:00,32.2,14.2,30.17,SE,130,0.0,0.0,47,0.00,CLR,,0.00,WeatherDisplay:10.37,2013-01-30 03:59:00,
2013-01-29 23:04:00,32.2,14.2,30.17,SE,130,0.0,0.0,47,0.00,CLR,,0.00,WeatherDisplay:10.37,2013-01-30 04:04:00,
2013-01-29 23:09:00,32.2,14.2,30.17,SE,130,0.0,0.0,47,0.00,CLR,,0.00,WeatherDisplay:10.37,2013-01-30 04:09:00,
2013-01-29 23:14:00,32.4,14.4,30.17,SE,130,0.0,0.0,47,0.00,CLR,,0.00,WeatherDisplay:10.37,2013-01-30 04:14:00,
2013-01-29 23:19:00,32.4,14.4,30.17,SE,130,0.0,0.0,47,0.00,CLR,,0.00,WeatherDisplay:10.37,2013-01-30 04:19:00,
2013-01-29 23:24:00,32.4,14.8,30.14,SE,130,0.0,0.0,48,0.00,CLR,,0.00,WeatherDisplay:10.37,2013-01-30 04:24:00,
2013-01-29 23:29:00,32.4,14.8,30.14,SE,130,0.0,0.0,48,0.00,CLR,,0.00,WeatherDisplay:10.37,2013-01-30 04:29:00,
2013-01-29 23:34:00,32.4,14.8,30.14,SE,130,0.0,0.0,48,0.00,CLR,,0.00,WeatherDisplay:10.37,2013-01-30 04:34:00,
2013-01-29 23:39:00,32.5,15.0,30.14,SE,130,0.0,0.0,48,0.00,CLR,,0.00,WeatherDisplay:10.37,2013-01-30 04:39:00,
2013-01-29 23:44:00,32.5,15.5,30.14,SE,130,0.0,0.0,49,0.00,CLR,,0.00,WeatherDisplay:10.37,2013-01-30 04:44:00,
2013-01-29 23:49:00,32.5,15.5,30.14,SE,130,0.0,0.0,49,0.00,CLR,,0.00,WeatherDisplay:10.37,2013-01-30 04:49:00,
2013-01-29 23:54:00,32.5,15.0,30.14,SE,130,0.0,0.0,48,0.00,CLR,,0.00,WeatherDisplay:10.37,2013-01-30 04:54:00,
2013-01-29 23:59:00,32.7,16.1,30.17,SE,130,0.0,0.0,50,0.00,CLR,,0.00,WeatherDisplay:10.37,2013-01-30 04:59:00,